Simultaneous Nadir Overpasses (SNOs) Predictions

Prediction of SNOs between LANDSAT-8 and NPP Satellite Orbit:

Table of predicted SNOs for the next 14.0 days since TLE Epoch: 2/3/2024
Index Date (LANDSAT-8) Time (LANDSAT-8) Lat,Lon (LANDSAT-8) SZA (LANDSAT-8 ) Date (NPP) Time (NPP) Lat,Lon (NPP) SZA (NPP ) Distance(km) Time Diff (sec)
1 02/03/2024 06:08:59 -70.33, -95.52 93.00 02/03/2024 06:07:46 -70.43, -96.03 92.87 21.60 73
2 02/03/2024 06:58:28 70.12, 71.83 86.80 02/03/2024 06:58:26 70.10, 71.78 86.79 2.74 2
3 02/03/2024 07:47:58 -70.01,-120.70 93.32 02/03/2024 07:49:08 -70.01,-120.76 93.33 2.16 70
4 02/05/2024 22:25:32 -70.18, 20.13 93.94 02/05/2024 22:24:36 -70.17, 20.15 93.94 1.04 56
5 02/05/2024 23:14:59 70.07,-172.37 85.96 02/05/2024 23:15:20 70.06,-172.38 85.94 1.49 21
6 02/06/2024 00:04:42 -69.25, -5.86 94.83 02/06/2024 00:05:49 -69.28, -3.91 94.90 76.95 67
7 02/08/2024 14:42:01 -70.16, 135.98 94.78 02/08/2024 14:41:29 -70.13, 135.98 94.80 3.16 32
8 02/08/2024 15:31:28 70.06, -56.52 85.11 02/08/2024 15:32:13 70.03, -56.55 85.08 3.35 45
9 02/11/2024 06:08:58 70.39, 84.56 84.59 02/11/2024 06:07:46 70.47, 83.91 84.71 25.65 72
10 02/11/2024 06:58:31 -70.12,-108.20 95.68 02/11/2024 06:58:23 -70.10,-108.21 95.70 1.72 8
11 02/11/2024 07:47:58 70.01, 59.29 84.21 02/11/2024 07:49:07 70.00, 59.26 84.19 1.58 69
12 02/13/2024 22:25:31 70.16,-159.90 83.48 02/13/2024 22:24:35 70.19,-159.88 83.52 3.32 56
13 02/13/2024 23:15:00 -70.11, 7.66 96.58 02/13/2024 23:15:17 -70.08, 7.60 96.61 3.49 17
14 02/14/2024 00:04:40 69.28, 174.17 82.63 02/14/2024 00:05:47 69.24, 176.15 82.50 78.06 67
15 02/16/2024 14:42:00 70.12, -44.08 82.53 02/16/2024 14:41:28 70.12, -44.00 82.54 2.85 32
16 02/16/2024 15:31:30 -70.02, 123.41 97.59 02/16/2024 15:32:10 -70.02, 123.47 97.59 2.43 40



Historial Predications of SNOs between LANDSAT-8 and NPP
